Wetbulb
60.91 60.91 60.86 60.75 60.39 60.29 60.73 60.68 59.96 59.46 58.13 57.71 57.61 57.60 57.86 57.51 56.47 62.33 59.45 59.59 61.39 62.70 59.36 61.45 60.98 60.65 60.42 58.68 59.43 58.52 51.79 49.72 51.11 51.00 51.73 54.51 53.10 56.57 58.10 56.68 57.25 60.97 62.14 64.92 70.12
60.87 61.05 61.05 60.72 60.03 59.78 59.88 60.09 59.67 59.42 58.56 57.65 56.95 57.19 57.17 56.53 60.58 59.37 61.00 61.73 62.22 62.68 59.74 58.76 57.80 58.85 57.12 57.18 57.61 54.97 51.49 51.21 54.64 54.42 52.73 54.21 54.06 55.05 55.13 55.57 56.30 59.32 61.89 65.59 68.50
60.77 60.64 60.85 60.67 59.97 59.69 59.53 59.50 59.22 59.47 58.73 57.77 56.63 56.90 56.46 56.99 58.28 58.37 61.91 61.65 61.31 59.81 60.25 60.06 58.69 57.62 55.38 56.98 56.16 55.42 51.46 54.90 54.58 55.21 55.16 54.23 54.80 55.88 54.65 53.68 56.06 56.58 58.97 63.30 66.07
60.11 59.99 60.10 60.25 60.20 59.61 59.13 58.51 58.94 59.22 59.16 57.56 56.19 56.70 56.53 60.30 51.15 60.42 62.62 61.55 61.75 61.82 59.42 58.08 57.23 54.98 53.92 53.15 56.04 52.31 54.82 55.21 55.56 55.71 55.02 53.99 55.48 53.91 54.63 55.62 58.13 58.30 59.38 59.92 63.23
59.20 59.13 59.52 59.79 59.76 59.34 58.72 58.33 58.60 58.87 58.78 57.04 55.54 56.35 58.63 56.87 56.51 60.82 61.58 61.44 60.73 60.20 57.57 56.26 55.38 55.09 52.61 54.08 54.76 52.94 53.61 55.06 55.15 55.10 54.51 54.63 53.16 53.32 54.04 56.58 58.09 58.28 58.56 58.53 59.81
58.02 58.49 58.48 58.89 59.03 58.96 58.46 58.11 57.71 57.98 58.19 56.73 55.21 54.95 57.46 51.49 62.48 63.40 61.52 60.93 59.88 59.51 58.84 57.06 55.55 56.78 54.20 53.77 52.85 54.32 53.40 53.94 54.62 54.20 54.35 52.60 53.06 53.99 54.93 56.88 56.40 56.85 57.58 58.82 60.75
55.46 57.18 58.06 58.39 58.42 58.33 58.31 57.81 57.39 57.51 57.83 56.67 55.09 57.31 55.95 54.94 62.72 63.23 60.68 59.72 60.03 59.46 57.81 59.09 57.90 54.60 54.69 52.49 55.23 53.60 50.49 52.72 53.48 53.83 53.33 54.82 51.45 52.18 55.88 56.28 55.54 56.28 56.80 57.51 59.46
54.12 55.09 56.58 57.45 57.50 57.48 57.39 57.03 56.92 57.35 57.42 55.74 54.51 57.89 53.04 62.08 63.69 61.96 62.20 60.39 60.60 60.40 59.63 60.06 59.51 55.68 54.86 55.89 52.36 50.16 50.57 47.38 52.78 54.08 54.14 52.49 48.20 54.04 55.85 55.25 54.94 55.49 55.75 57.06 58.97
53.28 53.68 54.43 55.96 56.65 56.45 56.54 56.44 56.70 57.45 56.73 54.58 54.49 56.66 52.43 59.78 57.32 60.32 60.81 58.29 59.71 59.97 59.80 59.68 58.13 54.18 54.19 49.74 48.42 49.58 44.65 47.34 49.98 53.16 52.46 51.15 49.59 54.17 55.58 54.80 54.57 55.15 55.86 56.89 58.44
53.86 52.58 53.40 54.33 55.96 55.66 55.60 56.20 56.96 55.23 54.14 54.81 54.87 50.66 55.05 53.27 57.74 58.04 60.80 59.57 57.14 57.43 55.32 54.81 54.32 51.55 51.01 49.24 42.86 45.56 47.02 48.12 48.24 51.51 51.27 50.10 50.13 53.48 54.78 54.31 53.93 54.92 55.94 56.75 57.32
53.50 54.10 53.30 54.37 55.14 55.38 54.98 54.66 51.09 49.00 50.64 49.15 49.45 51.89 54.05 57.87 58.78 55.88 58.87 57.63 56.28 53.84 49.24 52.37 48.85 47.18 49.55 50.82 50.84 50.04 48.67 47.91 50.06 51.94 49.18 49.53 50.13 52.13 54.17 54.33 54.24 54.38 55.24 56.54 56.67
52.69 52.98 53.33 54.06 54.53 55.30 56.08 51.37 52.45 54.89 45.68 50.64 53.79 53.87 56.39 57.08 52.85 54.54 56.88 51.83 51.38 47.85 51.15 50.03 46.32 51.43 52.36 52.12 50.17 49.37 47.79 46.95 49.62 51.27 50.51 49.34 49.11 52.25 53.65 53.81 54.50 54.58 54.97 55.92 56.15
51.76 52.32 52.47 53.01 52.97 53.70 53.91 53.46 57.29 55.66 47.34 50.55 52.53 52.11 53.63 55.73 51.82 53.18 55.41 52.85 50.01 47.85 48.66 48.86 49.85 51.99 51.14 50.12 48.61 48.45 47.02 46.87 46.39 50.01 50.26 48.85 47.77 50.24 53.31 54.71 55.36 55.27 56.10 56.43 55.68
51.00 51.23 51.61 52.42 48.37 52.78 52.02 57.14 57.41 56.62 38.77 41.55 47.10 51.19 53.04 54.07 50.63 56.56 56.34 52.95 49.89 47.78 48.59 49.95 52.37 50.55 49.53 48.98 49.50 45.76 50.30 48.73 47.35 46.72 43.21 50.65 42.46 49.37 51.25 51.56 52.45 53.69 55.06 55.39 55.04
49.73 50.75 51.26 51.31 49.07 50.33 54.12 57.74 56.88 51.42 24.85 44.38 47.43 56.62 55.25 50.10 51.44 51.77 57.64 53.55 47.93 48.08 48.14 47.11 48.80 48.77 47.70 48.87 50.12 47.26 51.36 49.92 48.67 46.87 46.87 46.78 44.37 47.80 51.62 48.70 49.53 52.39 53.81 54.76 53.95
49.87 50.02 50.82 50.38 49.74 48.22 51.25 57.11 51.25 33.37 26.52 41.48 47.70 47.79 46.74 49.99 50.09 52.95 51.88 54.73 53.31 48.87 49.46 48.57 52.57 50.63 50.14 50.97 50.80 51.05 48.81 48.06 47.94 45.98 39.85 44.95 45.04 45.20 48.41 50.56 50.75 51.95 53.29 53.64 53.25
48.78 49.06 49.10 49.42 47.23 51.55 52.18 51.04 36.27 28.69 41.28 39.75 43.50 46.36 45.10 44.54 46.43 48.59 47.65 47.59 45.53 40.87 42.36 46.01 47.01 50.23 49.33 47.98 50.82 49.20 45.62 38.40 37.22 37.88 37.91 46.72 44.81 46.91 51.27 51.52 53.02 51.21 52.21 52.68 52.35
48.29 48.23 48.67 49.93 52.44 51.28 50.26 43.15 30.79 34.32 38.03 46.32 46.50 45.16 42.40 46.08 45.28 46.16 44.70 44.24 48.43 46.93 44.27 40.76 38.80 46.37 48.75 47.40 44.97 44.65 43.38 39.97 33.05 35.19 40.09 47.08 41.85 47.43 50.55 51.76 53.87 53.39 52.98 51.64 49.85
47.69 48.56 47.12 49.55 52.33 50.17 40.15 32.09 34.54 37.13 43.07 44.49 44.04 40.84 41.30 44.65 46.35 44.74 44.48 44.65 47.47 48.67 42.28 42.11 41.45 49.22 49.31 49.33 48.36 45.09 41.43 46.04 40.36 40.96 37.21 42.28 45.84 46.49 48.73 49.79 51.29 51.41 51.60 49.24 47.72
46.24 45.32 44.39 49.95 52.07 46.31 34.08 31.07 37.27 44.89 46.53 45.83 38.43 42.64 39.16 42.66 43.09 42.92 42.92 47.11 46.92 49.46 50.74 46.47 39.84 47.79 48.87 50.71 49.55 46.59 48.55 39.12 38.59 31.89 31.17 39.82 41.65 42.48 44.12 46.77 49.28 49.67 49.45 47.93 47.19
44.92 36.99 44.86 50.04 48.76 38.91 28.23 32.34 35.76 46.24 48.36 44.40 42.84 41.11 42.97 42.66 43.80 42.39 43.46 46.74 49.10 48.88 50.31 47.77 44.78 41.97 46.34 44.51 44.07 43.19 42.10 43.13 42.88 41.09 35.46 35.37 41.00 46.86 47.54 47.52 47.49 48.30 48.34 46.76 46.26
40.67 30.16 45.28 49.01 32.47 34.27 31.10 34.71 40.41 42.85 47.89 46.02 47.30 44.98 44.43 44.68 42.90 42.24 42.05 45.69 49.82 50.23 44.77 48.19 43.73 38.67 41.32 48.04 49.30 47.64 44.08 44.39 38.74 36.63 40.43 40.66 41.87 48.13 49.87 48.90 48.79 47.79 47.07 46.42 46.65
34.69 36.77 45.55 44.42 26.24 29.13 34.36 35.99 39.53 39.89 43.59 44.56 44.52 47.21 47.21 44.09 40.12 43.64 44.61 49.19 49.17 49.12 46.47 45.35 40.90 34.50 37.24 40.74 43.89 41.50 46.13 44.90 44.19 44.03 39.62 35.84 39.69 47.37 49.69 48.57 48.66 46.73 44.65 44.59 45.09
35.29 28.74 34.04 38.70 38.32 33.14 33.05 33.94 34.89 41.66 39.75 45.65 46.40 47.52 45.08 43.03 45.61 43.11 44.19 43.70 48.37 49.24 48.10 47.29 43.13 41.31 36.76 39.64 43.34 39.27 42.14 45.56 42.93 37.01 38.57 40.81 41.92 43.70 46.61 47.00 47.28 45.47 45.04 44.93 44.75
36.90 32.62 35.88 28.35 30.70 34.08 34.56 34.55 34.54 35.07 40.31 42.83 44.05 44.89 42.60 41.52 42.12 43.21 42.95 42.35 43.69 46.14 46.98 46.25 40.70 42.71 43.42 44.50 42.81 41.98 40.85 41.63 41.04 42.52 37.73 41.62 42.34 43.57 45.68 46.21 45.59 45.14 44.86 44.40 43.57
33.18 35.18 37.37 35.11 35.68 33.12 33.14 32.98 34.13 35.82 40.46 36.39 39.86 45.49 45.47 43.38 43.78 42.03 42.87 41.16 38.99 40.14 42.37 44.88 38.64 40.47 38.03 41.92 41.65 39.19 41.45 42.41 41.77 42.05 41.71 42.41 42.05 47.83 48.60 47.67 45.24 44.99 43.25 42.39 42.93
42.57 41.07 38.45 34.20 34.52 32.63 32.06 33.68 33.33 38.04 40.63 43.97 42.51 45.81 44.19 47.47 49.30 48.27 48.18 46.26 43.30 39.26 39.83 38.46 38.02 35.15 32.72 39.38 37.04 32.13 37.34 39.83 40.92 42.85 42.07 38.30 43.88 47.17 45.68 45.75 45.90 43.64 43.05 42.34 43.00
MSLP
1013.79 1014.07 1014.16 1014.40 1014.66 1014.73 1014.92 1014.87 1014.88 1014.90 1014.65 1014.45 1014.19 1013.96 1013.19 1012.50 1011.75 1010.20 1009.20 1008.84 1008.68 1009.04 1009.15 1007.69 1007.37 1006.77 1006.54 1005.70 1005.18 1004.96 1003.63 1001.63 1000.64 1000.83 1001.10 1001.85 1002.44 1002.60 1002.93 1002.41 1002.26 1002.46 1002.99 1003.73 1004.55
1013.21 1013.50 1013.75 1013.82 1014.08 1014.44 1014.61 1014.86 1014.65 1014.59 1014.67 1014.49 1014.12 1013.89 1013.41 1012.55 1011.22 1009.11 1008.54 1008.59 1008.97 1009.06 1008.40 1007.07 1006.45 1006.27 1005.66 1005.21 1004.84 1004.54 1003.11 1001.45 1000.74 1001.19 1001.52 1002.12 1002.44 1002.27 1002.72 1001.89 1001.93 1002.71 1003.58 1003.98 1004.49
1012.51 1012.76 1013.17 1013.24 1013.65 1013.82 1014.09 1014.53 1014.65 1014.53 1014.42 1014.43 1014.18 1013.75 1013.37 1012.72 1010.28 1007.42 1008.33 1008.83 1009.20 1008.93 1007.90 1007.08 1006.57 1006.01 1005.31 1004.67 1004.27 1003.99 1003.23 1001.77 1001.57 1002.48 1002.40 1002.35 1002.61 1002.74 1002.39 1001.74 1001.50 1001.76 1002.45 1003.34 1004.19
1011.71 1011.94 1012.35 1012.73 1012.81 1013.37 1013.54 1013.88 1014.24 1014.60 1014.34 1014.32 1014.22 1013.69 1013.24 1012.22 1008.78 1007.29 1008.60 1008.86 1009.29 1008.34 1007.45 1007.06 1006.49 1005.83 1005.13 1004.34 1004.15 1003.80 1003.39 1002.99 1002.32 1002.39 1002.68 1002.59 1002.44 1002.28 1002.39 1001.92 1001.35 1001.91 1002.54 1003.05 1003.35
1010.96 1011.28 1011.53 1011.82 1012.18 1012.54 1013.00 1013.52 1013.72 1014.28 1014.38 1014.27 1014.21 1013.78 1012.94 1010.72 1007.86 1007.94 1008.39 1008.66 1008.49 1008.05 1007.14 1006.77 1006.22 1005.44 1004.63 1004.13 1003.96 1003.59 1003.58 1003.02 1002.95 1002.94 1003.04 1003.01 1002.62 1002.42 1002.13 1002.02 1002.11 1002.46 1002.53 1002.99 1003.00
1011.02 1010.53 1010.80 1011.11 1011.36 1011.76 1012.14 1012.82 1013.33 1013.75 1014.24 1014.22 1014.19 1014.00 1012.58 1009.78 1007.16 1006.93 1007.65 1007.72 1007.63 1007.46 1006.96 1006.74 1006.38 1005.73 1005.12 1004.40 1004.19 1003.64 1003.77 1003.27 1002.87 1002.82 1002.84 1002.91 1002.28 1002.14 1001.83 1001.97 1002.22 1002.43 1002.81 1002.72 1002.76
1011.00 1010.69 1010.11 1010.34 1010.70 1011.15 1011.47 1012.05 1012.77 1013.17 1014.00 1014.00 1014.17 1013.48 1011.55 1008.70 1007.51 1007.10 1007.44 1007.54 1007.04 1007.05 1006.65 1006.56 1006.56 1006.62 1005.70 1005.14 1004.70 1004.47 1004.14 1003.37 1002.67 1002.46 1002.21 1002.17 1001.55 1000.86 1001.14 1001.79 1002.18 1002.24 1002.86 1002.99 1003.51
1010.95 1010.59 1010.25 1009.77 1010.07 1010.52 1011.18 1011.54 1012.15 1012.82 1013.58 1013.91 1014.04 1013.06 1009.84 1007.67 1007.80 1007.39 1007.35 1007.33 1007.50 1007.54 1007.55 1007.01 1006.76 1006.81 1006.10 1005.53 1005.26 1004.70 1003.94 1002.66 1001.24 1000.99 1001.37 1002.24 1000.15 998.69 1000.45 1001.61 1001.77 1002.42 1002.93 1003.55 1004.35
1010.19 1010.59 1010.11 1009.76 1009.52 1010.03 1010.60 1011.43 1011.79 1012.50 1013.24 1013.79 1013.96 1012.49 1008.83 1007.47 1007.43 1006.97 1006.91 1006.47 1006.73 1007.08 1007.43 1007.08 1007.07 1006.60 1006.37 1006.04 1004.92 1003.79 1002.70 1001.58 1000.59 1000.91 1001.06 1001.78 1000.07 999.20 1000.91 1001.42 1001.30 1002.32 1002.69 1003.24 1004.14
1009.59 1009.54 1009.94 1009.40 1009.21 1009.30 1010.18 1011.09 1012.05 1012.59 1013.10 1013.35 1012.99 1012.07 1008.73 1006.48 1006.07 1006.20 1005.98 1006.31 1006.11 1006.13 1007.17 1007.34 1006.42 1005.84 1005.72 1004.69 1002.85 1002.01 1001.50 1001.25 1000.32 1000.15 1001.14 1000.80 1000.36 999.54 1000.33 1001.07 1001.35 1001.67 1002.51 1003.26 1004.11
1009.00 1008.97 1009.02 1009.18 1009.09 1008.62 1009.45 1010.92 1011.95 1011.89 1011.14 1009.52 1009.58 1007.76 1005.41 1005.92 1005.98 1005.63 1004.76 1005.31 1005.60 1005.99 1005.55 1005.66 1004.85 1003.60 1002.99 1002.97 1002.52 1001.79 1001.03 1000.39 1000.15 1000.79 1001.17 1000.72 1000.10 999.50 999.44 999.89 1000.19 1001.34 1002.32 1003.44 1004.64
1008.47 1008.40 1008.57 1008.78 1008.46 1008.23 1008.02 1007.47 1008.28 1007.40 1008.95 1009.21 1007.96 1007.42 1006.14 1005.58 1005.08 1004.98 1005.07 1004.68 1004.53 1004.07 1004.50 1003.92 1002.48 1002.40 1002.45 1002.45 1002.42 1002.05 1001.51 1001.23 1000.94 1000.72 1000.86 1000.88 1000.22 999.78 999.32 999.28 999.77 1000.43 1001.69 1003.38 1005.15
1007.64 1007.87 1008.10 1008.38 1008.28 1008.05 1006.71 1005.94 1007.01 1006.61 1007.03 1005.67 1006.06 1005.72 1005.96 1005.78 1004.28 1003.25 1003.83 1003.83 1003.40 1003.43 1002.72 1001.14 1001.20 1002.00 1001.55 1001.55 1001.50 1001.49 1001.26 1001.39 1001.12 1000.59 1001.27 1001.22 999.96 999.32 998.94 999.01 999.37 1000.36 1001.07 1003.34 1005.05
1006.93 1007.30 1007.79 1008.19 1009.01 1006.94 1005.86 1006.40 1006.73 1007.48 1007.09 1004.86 1003.86 1003.38 1004.20 1004.84 1002.72 1003.04 1002.67 1002.87 1002.73 1001.89 1002.01 1000.67 1000.67 1000.52 1000.91 1000.41 1001.18 1000.81 1001.30 1001.56 1001.50 1001.21 999.98 999.90 997.86 997.79 997.79 998.61 999.93 1001.08 1002.22 1003.70 1005.08
1006.12 1006.75 1007.18 1007.37 1007.15 1005.80 1005.12 1006.17 1006.65 1006.88 1005.00 1001.93 1000.23 1000.62 1001.80 1001.92 1001.14 1000.92 1001.48 1001.81 1000.95 1001.20 1001.51 998.99 999.74 999.99 1000.00 999.83 1000.92 1000.84 1001.01 1001.26 1001.45 1001.27 1000.51 999.52 998.61 997.44 997.82 998.64 1000.42 1001.58 1002.90 1004.12 1005.72
1005.13 1005.86 1006.58 1006.54 1006.75 1005.82 1005.93 1005.35 1005.92 1005.04 1001.56 1000.35 997.98 998.51 1000.76 1000.43 1001.01 1000.18 1001.08 1001.25 1001.16 1000.96 1000.29 999.46 999.41 999.83 999.61 1000.12 1000.82 1001.65 1002.08 1002.20 1002.08 1001.85 999.95 999.59 998.73 996.63 996.73 996.50 998.87 1001.49 1003.17 1004.54 1005.69
1004.05 1004.81 1005.68 1005.32 1003.99 1005.19 1005.21 1004.16 1003.50 1000.57 1000.14 999.28 997.55 998.41 999.80 999.45 1000.71 1000.93 999.95 999.96 999.43 1000.33 999.03 999.75 999.09 999.74 1000.49 999.96 1000.68 1001.69 1002.36 1002.08 1001.44 1000.75 998.14 998.66 997.49 996.06 995.97 996.47 997.37 1000.80 1003.20 1005.07 1006.29
1002.96 1003.89 1004.07 1003.88 1004.31 1004.62 1004.24 1001.81 999.10 997.38 998.06 997.04 996.94 998.56 998.07 998.66 999.80 1000.00 999.09 998.35 998.95 998.83 998.17 998.75 998.81 998.93 1000.22 999.97 1000.19 1001.09 1002.15 1001.52 1000.86 1000.03 998.46 997.14 996.00 995.52 997.21 997.58 998.76 1001.20 1003.56 1005.56 1006.85
1001.84 1002.68 1002.76 1002.66 1003.36 1004.15 1004.02 999.41 996.96 995.64 995.90 995.53 996.20 997.25 997.27 997.64 998.45 999.38 998.28 997.44 997.22 997.95 997.53 997.07 996.52 998.13 998.92 1000.28 1000.78 1001.08 1001.14 1002.90 1002.15 1002.01 1000.84 998.62 997.14 998.33 998.71 999.02 1000.14 1001.87 1003.92 1005.90 1007.06
1000.30 1001.12 1000.67 1001.70 1002.57 1003.13 1002.07 998.94 996.51 994.27 993.91 993.84 994.50 995.57 996.09 995.99 997.24 997.70 997.66 996.13 996.24 996.73 998.03 997.36 997.16 996.73 997.48 999.16 999.90 1000.24 1001.13 1002.24 1003.27 1002.18 1000.64 998.36 997.65 996.77 998.29 999.05 1000.41 1002.05 1003.96 1005.63 1006.82
999.25 999.55 999.03 1000.64 1001.77 1001.08 998.77 997.81 997.36 995.32 992.89 992.61 992.75 993.54 994.38 995.14 995.72 995.82 995.01 994.78 994.91 995.36 997.17 997.85 998.33 998.68 998.29 998.55 998.88 1000.21 1000.93 1001.53 1002.59 1001.98 1000.32 998.77 997.28 997.68 997.62 999.37 1000.63 1002.26 1004.12 1005.56 1006.74
997.21 997.29 997.70 999.18 999.94 998.37 997.47 997.33 996.62 995.25 993.55 992.17 992.19 992.15 992.83 994.30 995.12 994.63 994.80 994.73 994.51 995.16 996.38 997.57 998.97 998.82 998.73 998.79 999.11 998.93 1000.22 1001.16 1001.52 1001.76 1001.00 1000.24 998.59 998.81 998.73 1000.03 1001.37 1002.79 1004.16 1005.60 1006.50
994.83 995.68 996.43 997.38 996.80 996.78 997.34 996.64 995.69 994.94 993.13 991.76 991.36 991.21 992.39 992.97 995.04 994.04 995.24 994.79 995.41 995.54 996.32 998.13 999.39 999.74 999.57 1000.53 999.81 999.39 999.35 1000.47 1001.06 1001.22 999.96 1000.19 999.50 999.81 999.74 1000.55 1001.66 1003.04 1004.70 1005.82 1006.70
994.24 994.89 995.82 996.23 996.10 996.27 995.74 995.22 994.76 994.47 994.26 992.23 991.22 991.33 992.35 993.00 993.91 994.07 994.81 995.75 995.84 996.06 996.79 998.56 998.91 998.37 997.43 997.68 998.17 998.87 998.98 999.02 1000.26 1000.34 999.92 997.98 999.33 1000.07 1000.10 1000.76 1001.86 1003.47 1004.73 1005.62 1006.32
991.29 991.49 991.90 992.98 994.74 995.38 995.44 994.92 994.08 993.64 993.56 993.06 991.57 990.35 990.97 992.13 993.55 992.74 994.30 995.84 996.33 996.99 998.29 997.50 998.44 999.58 998.64 998.08 998.84 998.32 998.67 998.77 998.38 998.18 998.69 998.23 998.33 998.70 1000.04 1000.75 1001.83 1003.37 1004.62 1005.21 1005.94
988.39 989.44 991.18 991.66 992.80 994.14 994.37 993.53 992.94 992.87 992.63 992.61 991.73 989.82 990.55 991.04 990.84 991.18 993.27 994.66 995.59 998.15 997.85 998.39 998.35 999.71 999.72 999.31 999.25 998.76 998.25 997.52 997.56 997.49 997.29 997.79 997.56 997.97 998.43 1000.48 1002.18 1003.00 1004.19 1005.10 1005.72
988.03 989.13 990.43 991.08 991.27 992.08 992.43 992.85 992.62 992.80 992.30 991.39 991.63 990.37 990.00 990.32 991.46 991.85 992.59 994.61 995.78 997.61 998.07 999.26 999.84 1001.02 1000.42 1000.28 1000.03 999.22 997.20 997.02 996.94 996.60 996.81 996.57 996.94 997.81 999.08 1000.16 1001.30 1002.94 1004.12 1004.98 1005.57
Wind_Speed
16 16 16 15 14 13 12 11 10 10 9 9 9 12 15 16 19 16 15 5 4 2 5 10 10 11 13 14 11 11 13 13 15 9 10 9 10 6 6 9 3 5 5 7 8
18 18 18 16 15 14 13 12 11 9 9 9 8 12 16 16 18 17 6 8 3 2 11 10 12 11 12 14 11 13 13 18 7 4 4 10 7 7 7 13 11 11 6 5 7
20 20 19 18 16 15 14 12 11 9 8 8 9 11 15 14 17 3 8 6 4 7 12 8 8 9 14 14 13 14 16 18 3 8 7 8 11 11 13 16 8 9 11 12 9
21 20 20 19 17 16 14 13 12 10 9 7 9 11 13 12 8 12 8 4 6 11 6 10 13 14 14 15 15 18 17 15 15 8 8 12 11 11 13 14 10 2 5 6 10
21 21 21 21 19 17 15 13 12 10 9 8 8 11 10 12 16 16 9 8 9 10 10 10 14 14 16 13 14 13 15 17 10 13 11 12 13 15 15 13 12 11 11 10 11
19 22 22 21 21 20 17 16 13 11 10 7 8 10 10 18 6 8 10 11 12 14 13 10 11 12 13 14 13 12 10 16 12 14 13 15 15 16 13 13 10 11 11 15 12
17 18 23 23 21 20 19 17 15 12 10 8 8 9 15 21 1 4 6 11 11 13 13 10 11 9 5 10 16 11 15 17 19 19 18 17 18 22 17 9 11 7 4 3 4
17 18 20 22 21 20 18 17 16 13 11 7 7 11 14 10 13 18 18 14 11 10 12 14 10 12 16 12 8 12 15 17 18 21 15 9 17 16 12 11 14 8 6 7 5
14 19 19 19 21 20 18 16 16 14 9 7 6 13 19 7 15 22 18 17 15 17 14 10 11 15 11 15 15 18 14 19 21 9 10 15 16 19 14 10 10 8 10 7 7
17 15 20 18 20 20 18 17 12 11 6 4 7 5 15 17 15 9 19 22 14 14 14 16 12 14 17 16 18 18 18 16 18 11 12 17 17 13 18 15 14 12 10 8 6
15 16 15 18 17 20 18 11 9 7 9 14 12 18 3 20 7 11 14 19 19 17 23 24 19 21 29 26 23 20 13 14 10 15 7 12 16 15 14 18 16 9 11 10 8
16 13 11 16 14 18 17 13 25 4 9 20 28 25 28 7 13 18 16 16 19 22 23 18 25 27 25 23 22 23 20 18 16 16 11 14 19 20 18 18 14 17 16 13 10
16 14 12 9 15 11 20 29 20 23 6 16 36 37 20 22 19 21 24 22 22 24 26 27 18 26 24 24 22 22 22 18 18 10 12 15 22 24 22 26 18 10 10 15 14
19 17 12 0 7 9 20 22 15 9 6 14 26 28 33 24 33 25 26 19 18 28 27 28 22 18 27 26 20 23 20 18 17 16 17 18 18 19 7 12 12 13 13 14 14
24 20 14 14 6 7 11 16 12 5 9 9 29 15 23 44 6 36 23 28 25 24 22 29 25 29 24 23 22 20 14 17 17 17 18 22 17 14 19 15 14 15 16 15 13
23 20 16 12 9 12 12 16 7 8 10 9 10 30 26 38 37 16 36 27 23 23 27 28 19 23 22 20 21 13 14 10 12 13 21 20 21 19 20 18 23 19 18 18 15
25 21 20 16 18 11 11 12 13 11 13 11 18 25 27 26 32 33 35 35 28 27 30 23 27 17 7 22 21 19 13 10 12 15 18 17 20 17 16 5 23 23 20 17 15
27 22 20 16 14 11 7 15 19 15 22 13 19 23 26 22 31 32 25 30 38 31 14 26 27 31 17 21 18 21 19 13 13 14 16 18 16 10 10 4 20 21 20 16 14
28 16 17 17 19 9 9 17 21 23 31 22 20 25 25 27 15 29 33 29 32 38 29 20 33 24 34 22 23 21 25 19 21 14 11 10 6 7 8 12 18 21 20 17 14
16 17 20 19 20 11 12 14 6 20 27 28 18 21 25 30 21 27 25 24 30 34 33 24 14 23 22 27 29 31 13 19 3 10 15 13 22 16 21 21 22 22 21 18 14
17 15 16 20 15 13 15 14 11 23 23 35 28 18 27 30 27 28 17 8 32 28 31 26 10 8 13 21 21 18 17 11 9 13 9 14 13 10 20 20 22 21 19 16 14
18 19 15 16 17 11 19 18 8 19 31 34 28 23 26 27 28 22 21 25 14 22 29 19 4 13 20 17 23 25 22 22 7 6 13 13 11 3 16 19 19 20 17 14 11
18 17 17 20 18 17 26 25 20 14 28 33 28 27 26 25 16 19 23 11 13 19 21 11 6 6 12 7 12 13 22 24 17 12 18 9 3 3 10 17 19 19 15 11 11
12 14 8 15 19 25 26 33 21 19 12 24 35 28 24 23 18 25 23 11 17 20 17 20 7 12 12 11 14 24 21 23 23 12 14 23 14 9 13 17 18 17 14 13 10
13 11 19 15 18 24 25 27 36 19 23 11 32 34 23 24 28 26 21 17 14 16 15 17 16 22 23 21 11 12 23 25 29 27 21 15 23 16 18 18 20 18 15 12 11
13 8 16 12 28 27 30 27 28 37 22 27 28 31 31 26 25 28 22 18 17 9 16 13 8 10 14 16 16 13 22 23 28 28 30 23 23 14 14 18 18 18 12 12 9
11 8 13 19 19 23 22 29 34 27 30 25 28 31 30 33 18 15 16 16 16 16 13 11 9 7 9 16 4 13 26 27 22 24 22 24 20 18 8 16 18 15 13 10 8
Wind_Direction
228 230 227 229 231 231 238 239 252 269 278 297 316 315 312 315 306 277 254 62 108 126 312 236 220 216 233 242 243 249 266 250 241 201 240 130 227 148 289 260 201 78 5 77 127
227 228 230 227 224 228 232 241 241 253 273 293 310 314 309 319 300 279 102 94 97 256 243 216 214 212 229 231 225 238 242 255 354 316 269 181 224 258 252 220 198 171 146 141 156
226 225 227 225 226 221 222 234 239 250 262 286 308 311 308 313 285 225 118 113 224 249 258 259 270 251 238 237 230 238 250 282 235 247 264 226 228 245 244 246 243 196 164 165 178
224 222 223 224 219 223 217 215 222 247 257 276 301 309 309 287 276 102 113 153 255 267 236 238 236 228 239 237 231 250 261 275 284 265 255 254 256 260 245 255 279 208 229 250 195
222 222 221 219 219 214 211 212 213 227 248 265 292 303 301 243 250 134 141 175 225 243 242 237 247 239 250 243 249 248 262 272 263 267 253 267 253 250 249 248 255 255 253 239 242
272 225 221 218 215 211 205 201 202 206 233 249 277 302 247 255 307 176 199 220 234 238 240 235 256 274 281 272 248 259 285 272 258 254 245 249 252 236 233 239 246 243 247 231 227
302 282 227 218 216 212 204 195 195 188 219 224 266 268 259 239 276 270 204 230 228 232 235 235 250 247 256 254 246 262 264 261 247 246 248 250 256 243 233 182 236 192 212 238 4
286 300 278 224 215 209 203 190 184 179 200 205 251 259 257 249 251 244 243 226 249 241 254 267 231 253 264 288 251 247 245 257 251 228 225 235 260 215 177 195 207 188 176 202 124
264 280 290 269 216 205 193 185 175 174 169 178 240 233 257 129 231 238 237 225 221 228 234 232 226 226 223 244 249 226 251 236 245 192 224 205 250 140 163 196 205 209 201 174 144
269 257 278 279 238 200 182 170 155 124 170 197 268 222 252 234 237 248 209 223 219 216 209 214 208 219 225 227 230 230 226 230 262 175 211 246 235 256 173 203 218 206 217 190 155
265 267 256 271 277 204 157 132 162 208 205 195 171 222 12 210 163 226 188 185 196 193 204 204 205 211 223 223 244 264 280 280 193 239 237 257 265 251 223 213 219 209 207 196 154
256 266 277 282 270 229 190 190 199 196 225 222 245 220 248 299 230 220 177 185 195 204 210 194 221 221 228 238 233 247 252 248 257 261 239 262 260 260 247 246 233 214 195 181 162
240 252 263 274 296 250 199 205 190 224 266 215 210 227 221 230 237 206 190 204 198 209 213 217 215 226 227 228 231 229 240 234 250 242 213 250 262 259 252 238 236 236 191 165 179
242 241 244 52 316 230 213 204 202 174 223 237 224 231 222 231 236 239 188 197 227 220 223 235 229 227 219 229 220 232 227 238 249 252 251 245 268 264 112 185 200 201 189 176 166
243 237 224 174 298 236 199 190 159 113 203 210 224 170 197 206 175 204 210 210 223 212 225 232 221 235 225 219 214 234 256 238 230 255 268 250 256 246 254 189 192 184 181 169 168
232 229 224 225 223 235 292 158 132 177 206 220 197 183 197 200 215 223 206 212 223 235 226 241 212 235 215 216 221 207 240 238 240 250 251 247 254 251 248 238 181 178 180 171 168
229 225 226 233 234 215 228 167 211 211 138 205 192 183 193 196 213 223 194 203 205 203 223 220 234 204 289 219 210 200 221 228 235 222 251 243 238 237 237 244 167 168 172 168 164
221 218 226 232 228 237 256 204 221 140 177 221 166 171 192 185 209 213 216 208 211 217 206 215 217 221 186 219 199 208 214 228 247 248 264 235 235 230 45 102 138 159 164 164 170
211 216 223 221 231 209 232 240 207 156 185 195 159 182 196 196 199 203 217 215 212 211 217 219 230 206 214 200 224 199 218 239 264 259 279 259 217 118 148 156 150 161 161 170 176
205 214 223 215 214 208 224 228 286 192 190 196 162 187 193 191 194 189 198 219 221 208 222 234 274 215 213 214 208 234 203 208 201 223 237 232 237 250 175 171 167 164 172 178 180
203 212 216 209 205 214 218 225 216 232 200 195 183 173 194 188 200 190 198 211 207 205 207 221 244 210 168 199 201 195 213 204 221 234 245 264 253 352 171 175 175 170 176 175 188
193 212 198 189 208 217 220 206 173 228 228 199 194 172 188 186 202 178 209 208 207 185 196 204 150 197 189 213 220 209 195 194 195 189 236 260 264 354 150 171 176 170 170 180 188
191 203 199 186 203 222 214 221 215 215 220 198 194 192 186 182 200 177 211 194 191 189 190 153 202 150 182 224 221 234 209 200 218 249 231 218 138 166 159 169 175 166 170 176 191
167 193 203 201 207 219 205 220 213 211 251 224 206 195 192 190 193 193 185 180 197 195 149 160 188 221 186 175 186 209 220 218 198 228 233 239 248 184 186 178 173 168 178 191 187
173 189 178 177 205 209 229 210 222 220 212 249 216 200 183 198 194 189 147 162 180 182 172 171 210 219 247 267 180 231 213 226 229 228 220 238 242 202 193 190 184 180 189 195 208
161 165 175 197 189 201 223 214 222 212 232 217 244 193 194 199 192 179 161 169 164 174 172 203 200 227 248 241 253 244 248 226 227 237 244 239 246 269 201 186 185 191 183 208 218
158 174 179 194 207 203 219 222 222 247 216 235 221 208 184 204 192 195 151 161 151 171 164 161 162 151 232 230 235 272 237 237 232 232 231 239 242 243 172 189 189 181 205 212 217